Regional Weather Roundup
Issued by NWS

Home | Current Version | Previous Version | Text Only | Print | Product List | Glossary Off
Versions: 1 2 3 4 5 6 7 8 9 10 11 12 13 14 15 16 17 18 19 20 21 22 23 24 25 26 27 28 29 30 31 32 33 34 35 36 37 38 39 40 41 42 43 44 45 46 47 48 49 50

000
ASUS43 KIND 062309
RWRIN

WEATHER ROUNDUP FOR INDIANA
NATIONAL WEATHER SERVICE INDIANAPOLIS IN
700 PM EDT MON JUL 06 2015

NOTE: "FAIR" INDICATES FEW OR NO CLOUDS BELOW 12,000 FEET WITH NO
SIGNIFICANT WEATHER AND/OR OBSTRUCTIONS TO VISIBILITY.

* - STATION DOES NOT REPORT WEATHER SUCH AS PRECIPITATION OR FOG.

+ - STATION NOT QUALITY CONTROLLED BY THE NATIONAL WEATHER SERVICE.
    USE DATA WITH CAUTION...ESPECIALLY DEWPOINT AND RELATIVE
    HUMIDITY OBSERVATIONS.

INZ001>003-010>013-019-020-070000-
NORTHWEST INDIANA

CITY           SKY/WX    TMP DP  RH WIND       PRES   REMARKS
GARY /AIRPORT/ PTSUNNY  N/A N/A N/A S8        29.89F
KNOX *+        PTSUNNY   81  66  61 S10       29.90F
LA PORTE +     PTSUNNY   83  70  63 SW9       29.92S
MICHIGAN CITY+ HVY RAIN  70  68  94 SE7G16    29.91S VSB 1
MONTICELLO +   PTSUNNY   82  73  72 S7        29.92F
RENSSELAER +   CLOUDY    82  73  74 S12G18    29.91S
VALPARAISO     PTSUNNY   82  70  66 SW5       29.91F

$$

LMZ046-743>745-070000-
SOUTHERN LAKE MICHIGAN

STATION/POSITION TIME  TEMP    WIND        PRES    WAVE
                       AIR SEA DIR/SP/G            HT
                 (UTC) (F)     (DEG/KT/KT) (MB)    (FT)
BURNS HARBOR     2300   73     220/  5/ 10 1013.2R
MICHIGAN CITY    2300   71     150/ 16/ 21   N/A
5NW MICH CITY    2300   70 68  180/ 10/ 14   N/A     1

$$

INZ004-005-014>016-021>024-070000-
NORTH CENTRAL INDIANA

CITY           SKY/WX    TMP DP  RH WIND       PRES   REMARKS
ELKHART        MOSUNNY   82  64  54 S10       29.93F
GOSHEN         MOSUNNY   81  66  60 SW10      29.94F
LOGANSPORT +   PTSUNNY   81  63  54 S7        29.95F
PERU/GRISSOM   MOSUNNY   82  69  64 SW9       29.94F
ROCHESTER +    MOSUNNY   86  70  58 S8        29.95S
SOUTH BEND     PTSUNNY   83  69  62 S15       29.92F
WARSAW +         N/A     81  64  57 S3        29.94F

$$

INZ006>009-017-018-025>027-070000-
NORTHEAST INDIANA

CITY           SKY/WX    TMP DP  RH WIND       PRES   REMARKS
ANGOLA *+        N/A     82  66  57 S10       29.95F
AUBURN +       MOSUNNY   82  63  51 SW7       29.96F
FORT WAYNE     MOSUNNY   83  66  56 S13       29.96F
HUNTINGTON +   MOSUNNY   82  65  57 S7G16     29.95F

$$

INZ028-029-035-036-043>045-051>053-070000-
WEST CENTRAL INDIANA

CITY           SKY/WX    TMP DP  RH WIND       PRES   REMARKS
CRAWFORDSVL +  MOSUNNY   81  65  59 S9        29.95F
GREENCASTLE +  MOSUNNY   82  66  57 S5        29.97F
LAFAYETTE      PTSUNNY   83  71  67 S7        29.92F
TERRE HAUTE    PTSUNNY   84  73  69 SW10      29.95F

$$

INZ030>032-037>040-046>048-054>057-064-065-070000-
CENTRAL INDIANA

CITY           SKY/WX    TMP DP  RH WIND       PRES   REMARKS
CP ATTERBURY + MOSUNNY   82  70  65 S5        29.99F
FISHERS *+     MOSUNNY   82  70  65 SW9       29.96
FRANKFORT +    MOSUNNY   83  71  66 S6        29.98R
GREENWOOD *+   MOSUNNY   82  66  57 SW9       29.98F
INDIANAPOLIS   MOSUNNY   83  68  60 S9        29.96F
-EAGLE CREEK   MOSUNNY   83  67  58 SW8       29.96F
KOKOMO *+      MOSUNNY   82  66  57 SW10      29.96S
MARION +       MOSUNNY   82  64  55 SW8       29.97F
MT COMFORT *+  MOSUNNY   82  57  42 SW7       29.98F
SHELBYVILLE    SUNNY     84  70  62 SW9       29.98F
ZIONSVILLE +   MOSUNNY   83  65  53 S13       29.97F

$$

INZ033-034-041-042-049-050-058-059-070000-
EAST CENTRAL INDIANA

CITY           SKY/WX    TMP DP  RH WIND       PRES   REMARKS
MUNCIE         SUNNY     83  64  52 SW10      29.98F

$$

INZ060-061-067>069-081>083-085>088-070000-
SOUTHWEST INDIANA

CITY           SKY/WX    TMP DP  RH WIND       PRES   REMARKS
EVANSVILLE     LGT RAIN  85  73  67 S7        29.97F
HUNTINGBURG *+ MOSUNNY   84  72  65 S9        29.99F
WASHINGTON +   MOSUNNY   84  69  60 S6        29.96F

$$

INZ062-063-066-070>080-084-089>092-070000-
SOUTH CENTRAL AND SOUTHEAST INDIANA

CITY           SKY/WX    TMP DP  RH WIND       PRES   REMARKS
BLOOMINGTON    MOSUNNY   83  70  64 SW8       29.99F
MADISON *+     MOSUNNY   82  64  54 S7        30.02F
NORTH VERNON + SUNNY     84  66  54 SW9       30.00F
SEYMOUR +      SUNNY     84  70  61 SW7       29.98F

$$



USA.gov is the U.S. government's official web portal to all federal, state and local government web resources and services.